CDT,Max TemperatureF,Mean TemperatureF,Min TemperatureF,Max Dew PointF,MeanDew PointF,Min DewpointF,Max Humidity, Mean Humidity, Min Humidity, Max Sea Level PressureIn, Mean Sea Level PressureIn, Min Sea Level PressureIn, Max VisibilityMiles, Mean VisibilityMiles, Min VisibilityMiles, Max Wind SpeedMPH, Mean Wind SpeedMPH, Max Gust SpeedMPH,PrecipitationIn, CloudCover, Events, WindDirDegrees
2013-3-1,45,39,32,25,22,17,64,55,45,30.31,30.24,30.18,10,10,10,22,11,29,0.00,8,,325
2013-3-2,47,38,28,23,20,17,75,53,31,30.38,30.31,30.25,10,10,10,16,8,21,0.00,3,,317
2013-3-3,64,47,29,31,26,23,85,56,27,30.25,30.04,29.83,10,10,8,13,7,17,0.00,1,,100
2013-3-4,72,57,42,49,42,31,83,62,40,29.81,29.70,29.61,10,10,10,15,8,,0.00,0,,56
2013-3-5,56,48,40,36,24,15,72,49,26,30.35,30.20,29.91,10,10,10,26,16,36,0.01,3,Rain,317
2013-3-6,52,41,30,30,22,18,58,44,30,30.45,30.35,30.26,10,10,10,16,7,21,0.00,0,,287
2013-3-7,67,53,38,34,29,24,70,45,20,30.31,30.23,30.15,10,9,5,16,8,21,0.00,1,,92
2013-3-8,65,54,43,39,35,33,70,51,31,30.30,30.19,30.09,10,10,8,18,10,21,0.00,5,,82
2013-3-9,69,59,49,59,50,38,68,56,43,30.07,29.85,29.71,10,9,2,23,9,29,0.52,6,Rain-Thunderstorm,149
2013-3-10,58,47,36,55,44,26,96,80,64,30.01,29.82,29.67,10,8,2,28,11,32,1.13,8,Rain,269
2013-3-11,50,41,32,32,27,24,76,56,36,30.07,30.01,29.98,10,10,10,22,10,29,0.00,4,,278
2013-3-12,64,49,33,41,30,23,89,60,30,30.34,30.19,30.06,10,10,10,21,7,25,0.30,1,,309
2013-3-13,61,47,33,33,22,15,69,43,17,30.49,30.41,30.34,10,10,9,12,3,18,0.00,1,,285
2013-3-14,75,56,37,43,35,27,76,52,27,30.38,30.26,30.12,10,10,8,20,6,25,0.00,0,,150
2013-3-15,83,64,44,49,44,40,89,57,24,30.14,29.98,29.83,10,10,9,26,8,37,0.00,0,,210
2013-3-16,82,67,51,52,48,42,83,58,33,29.85,29.78,29.70,10,10,10,12,4,17,0.00,1,,178
2013-3-17,69,59,48,57,49,46,93,74,55,29.80,29.74,29.69,10,5,0,20,7,23,0.30,8,Fog-Rain,82
2013-3-18,60,51,41,47,43,35,93,67,40,30.06,29.85,29.72,10,7,2,17,6,21,0.02,5,Rain,309
2013-3-19,61,49,37,38,33,29,86,59,31,30.22,30.13,30.04,10,10,10,16,6,23,0.00,0,,57
2013-3-20,58,47,35,31,26,20,76,50,24,30.35,30.24,30.13,10,10,10,17,6,22,0.00,0,,8
2013-3-21,44,41,38,36,26,14,85,57,28,30.11,29.94,29.81,10,9,5,20,12,24,0.31,6,Rain,88
2013-3-22,46,42,37,40,38,32,92,84,76,29.94,29.88,29.81,10,9,4,22,12,29,0.21,8,Rain-Thunderstorm,77
2013-3-23,47,45,42,43,40,32,92,87,82,29.91,29.82,29.72,10,7,2,16,8,20,0.01,8,Rain,82
2013-3-24,46,38,30,43,31,19,92,73,54,30.19,29.90,29.71,10,8,2,33,17,40,0.02,7,Rain,287
2013-3-25,42,35,28,23,20,17,75,58,41,30.39,30.27,30.17,10,10,10,23,11,29,0.00,4,,295
2013-3-26,50,39,27,27,22,19,75,54,32,30.48,30.40,30.34,10,10,10,15,6,20,0.00,0,,274
2013-3-27,67,49,31,30,26,22,85,52,19,30.36,30.27,30.15,10,10,10,15,5,22,0.00,0,,104
2013-3-28,74,60,45,48,42,33,72,54,35,30.26,30.19,30.11,10,10,10,15,7,23,0.00,3,,121
2013-3-29,63,59,55,56,53,48,93,83,72,30.18,30.14,30.11,10,9,3,13,5,16,0.22,7,Rain,67
2013-3-30,72,64,55,58,55,53,93,77,61,30.15,30.02,29.89,10,6,2,23,6,28,0.64,7,Rain-Thunderstorm,81
2013-3-31,73,63,53,57,52,43,100,71,41,29.97,29.91,29.86,10,8,0,15,5,20,0.03,3,Fog-Rain-Thunderstorm,11